Friday Harbor, WA

6:16 PM PDT on April 25, 2018 (GMT -0700)
Friday Harbor

Weather History for KFHR - December, 2013

Change the Weather History Date:

Wednesday, December 18, 2013

  Actual Average Record
Temperature  
Mean Temperature 40 °F -  
Max Temperature 46 °F 43 °F 51 °F (2003)
Min Temperature 35 °F 34 °F 23 °F (2008)
Degree Days  
Heating Degree Days 24    
Moisture  
Dew Point 33 °F    
Average Humidity 74    
Maximum Humidity 89    
Minimum Humidity 39    
Precipitation  
Precipitation 0.00 in - - ()
Sea Level Pressure  
Sea Level Pressure 30.10 in    
Wind  
Wind Speed 5 mph (North)    
Max Wind Speed 17 mph    
Max Gust Speed 29 mph    
Visibility 10 miles    
Events      
Averages and records for this station are not official NWS values.
T = Trace of Precipitation, MM = Missing Value Source: NWS Daily Summary

Daily Weather History Graph

Daily Weather History Graph

Search for Another Location

Airport or City:

Astronomy

Dec. 18, 2013 Rise Set
Actual Time 7:59 AM PST 4:18 PM PST
Civil Twilight 7:22 AM PST 4:54 PM PST
Nautical Twilight 6:42 AM PST 5:35 PM PST
Astronomical Twilight 6:04 AM PST 6:13 PM PST
Moon 6:02 PM PST (12/18) 8:36 AM PST (12/18)
Length of Visible Light 9h 32m
Length of Day
8h 18m
Full, 98% of the Moon is Illuminated
Dec 18
Full
Dec 25
Last Quarter
Jan 1
New
Jan 7
First Quarter
Jan 15
Full

Hourly Weather History & Observations

Time (PST) Temp. Windchill Dew Point Humidity Pressure Visibility Wind Dir Wind Speed Gust Speed Precip Events Conditions
12:53 AM 44.1 °F 41.5 °F 39.0 °F 82% 30.09 in 10.0 mi Variable 4.6 mph - N/A   Overcast
1:53 AM 44.1 °F 40.1 °F 37.9 °F 79% 30.09 in 10.0 mi SW 6.9 mph - N/A   Overcast
2:53 AM 44.1 °F - 39.0 °F 82% 30.10 in 10.0 mi North - - N/A   Mostly Cloudy
3:53 AM 44.1 °F 40.8 °F 39.0 °F 82% 30.09 in 10.0 mi Variable 5.8 mph - N/A   Clear
4:53 AM 44.1 °F 37.7 °F 37.9 °F 79% 30.08 in 10.0 mi SW 12.7 mph 20.7 mph N/A   Clear
5:53 AM 43.0 °F 39.5 °F 35.1 °F 74% 30.07 in 10.0 mi WSW 5.8 mph 16.1 mph N/A   Clear
6:53 AM 42.1 °F 39.2 °F 34.0 °F 73% 30.08 in 10.0 mi West 4.6 mph - N/A   Scattered Clouds
7:29 AM 41.0 °F - 34.0 °F 76% 30.08 in 10.0 mi Calm Calm - N/A   Overcast
7:53 AM 39.9 °F - 34.0 °F 79% 30.09 in 10.0 mi Calm Calm - N/A   Overcast
8:01 AM 41.0 °F - 34.0 °F 76% 30.09 in 10.0 mi Calm Calm - N/A   Overcast
8:20 AM 39.9 °F - 34.0 °F 79% 30.09 in 10.0 mi Calm Calm - N/A   Overcast
8:53 AM 41.0 °F 39.0 °F 33.1 °F 73% 30.09 in 10.0 mi West 3.5 mph - N/A   Overcast
9:53 AM 41.0 °F - 34.0 °F 76% 30.10 in 10.0 mi Calm Calm - N/A   Mostly Cloudy
10:53 AM 43.0 °F - 36.0 °F 76% 30.09 in 10.0 mi Calm Calm - N/A   Mostly Cloudy
11:03 AM 46.0 °F - 37.0 °F 71% 30.08 in 10.0 mi Calm Calm - N/A   Overcast
11:33 AM 46.0 °F 43.9 °F 34.0 °F 63% 30.07 in 10.0 mi South 4.6 mph - N/A   Overcast
11:53 AM 46.0 °F 43.1 °F 30.9 °F 56% 30.06 in 10.0 mi SSW 5.8 mph - N/A   Overcast
12:53 PM 42.1 °F 36.6 °F 35.1 °F 76% 30.06 in 10.0 mi North 9.2 mph - N/A   Overcast
1:53 PM 42.1 °F 38.4 °F 34.0 °F 73% 30.05 in 10.0 mi NE 5.8 mph - N/A   Overcast
2:53 PM 39.0 °F 36.8 °F 33.1 °F 79% 30.06 in 10.0 mi NE 3.5 mph - N/A   Clear
3:53 PM 37.9 °F - 34.0 °F 86% 30.08 in 10.0 mi Calm Calm - N/A   Overcast
4:53 PM 37.0 °F 34.5 °F 34.0 °F 89% 30.09 in 10.0 mi NW 3.5 mph - 0.00 in   Overcast
5:53 PM 37.0 °F 34.5 °F 28.0 °F 70% 30.09 in 10.0 mi Variable 3.5 mph - N/A   Scattered Clouds
6:53 PM 37.0 °F - 32.0 °F 82% 30.10 in 10.0 mi Calm Calm - 0.00 in   Overcast
7:39 PM 37.0 °F 32.4 °F 33.1 °F 86% 30.12 in 10.0 mi NE 5.8 mph - N/A   Overcast
7:53 PM 37.0 °F 31.0 °F 33.1 °F 86% 30.14 in 10.0 mi NNE 8.1 mph - N/A   Overcast
8:09 PM 35.1 °F 28.6 °F 32.0 °F 89% 30.14 in 10.0 mi NNE 8.1 mph - N/A   Scattered Clouds
8:53 PM 35.1 °F 27.4 °F 28.0 °F 76% 30.18 in 10.0 mi North 10.4 mph - N/A   Clear
9:53 PM 37.9 °F 30.9 °F 21.9 °F 53% 30.20 in 10.0 mi NNE 10.4 mph 19.6 mph N/A   Clear
10:53 PM 39.0 °F 30.6 °F 16.0 °F 39% 30.20 in 10.0 mi NNE 15.0 mph 28.8 mph N/A   Clear
11:53 PM 37.9 °F 28.5 °F 17.1 °F 43% 30.24 in 10.0 mi NNE 17.3 mph 24.2 mph N/A   Partly Cloudy